(211899) = 2004 JV41

Discovered at Socorro on 2004-05-15 by LINEAR.

Orbit

Orbit type: Main Belt

Note: WebGL enabled browser required.

epoch2024-03-31.0
epoch JD2460400.5
perihelion date2021-08-10.63362
perihelion JD2459437.13362
argument of perihelion (°)21.22990
ascending node (°)239.14955
inclination (°)16.03211
eccentricity0.1174342
perihelion distance (AU)2.8024644
Tisserand w.r.t. Jupiter3.1
ΔV w.r.t. Earth (km/sec)11.5
semimajor axis (AU)3.1753603
mean anomaly (°)167.80536
mean daily motion (°/day)0.17418640
aphelion distance (AU)3.548
period (years)5.66
P-vector [x]-0.17921335
P-vector [y]-0.93773290
P-vector [z]-0.29755603
Q-vector [x]0.95481221
Q-vector [y]-0.23867633
Q-vector [z]0.17710801
absolute magnitude15.01
phase slope0.15
uncertainty0
referenceMPEC 2024-F14
observations used679
oppositions17
arc length (days)9005
first opposition used1999
last opposition used2024
residual rms (arc-secs)0.66
perturbers coarse indicatorM-v
perturbers precise indicator003Ek
first observation date used1999-07-22.0
last observation date used2024-03-17.0
computer nameMPCLINUX
JD of orbit computation2456670.968357
perihelion JD uncertainty (days)2.9684E-04
argument of perihelion uncertainty (°)4.8027E-05
ascending node uncertainty (°)2.4066E-05
inclination uncertainty (°)1.0081E-05
eccentricity uncertainty 8.6090E-08
perihelion distance uncertainty (AU)2.8450E-07
Minimum Orbit Intersection Distances (in AU)
for orbit epoch: 2460400.5, reference: E2024-F14
Mercury2.34184
Venus2.08037
Earth1.79355
Mars1.29088
Jupiter1.50166
Saturn5.51642
Uranus15.3298
Neptune26.3446

Observations

688 total observations over interval: 1999 07 22.23381 – 2024 03 17.128714
These data are available for download (format description).

Date (UT) J2000 RA J2000 Dec Magn Location Ref
1999 07 22.23381 20 33 28.85 +04 14 00.7 18.9   704 – Lincoln Laboratory ETS, New Mexico MPS 213126
1999 07 22.24612 20 33 28.31 +04 14 00.9 19.3   704 – Lincoln Laboratory ETS, New Mexico MPS 213126
1999 07 22.27088 20 33 27.19 +04 14 02.5 19.6   704 – Lincoln Laboratory ETS, New Mexico MPS 213126
2004 04 25.34154 16 29 52.55 -22 38 13.3 19.3   704 – Lincoln Laboratory ETS, New Mexico MPS 108172
2004 04 25.37143 16 29 51.67 -22 38 03.0 19.3   704 – Lincoln Laboratory ETS, New Mexico MPS 108172
2004 04 25.38136 16 29 51.36 -22 37 59.9 20.1   704 – Lincoln Laboratory ETS, New Mexico MPS 108172
2004 05 15.30073 16 17 31.49 -20 19 35.1 19.2   704 – Lincoln Laboratory ETS, New Mexico MPS 107481
2004 05 15.31039 16 17 31.01 -20 19 31.7 19.9   704 – Lincoln Laboratory ETS, New Mexico MPS 107481
2004 05 15.32021 16 17 30.56 -20 19 25.9 19.5   704 – Lincoln Laboratory ETS, New Mexico MPS 107481
2004 05 15.33937 16 17 29.71 -20 19 17.5 19.4   704 – Lincoln Laboratory ETS, New Mexico MPS 107481
2004 05 16.31430 16 16 45.08 -20 11 48.0 19.1 C 704 – Lincoln Laboratory ETS, New Mexico MPS 294352
2004 05 16.32387 16 16 44.52 -20 11 42.9 18.6 C 704 – Lincoln Laboratory ETS, New Mexico MPS 294352
2004 05 16.33345 16 16 44.12 -20 11 40.5 18.4 C 704 – Lincoln Laboratory ETS, New Mexico MPS 294352
2004 05 16.34303 16 16 43.66 -20 11 34.0 19.0 C 704 – Lincoln Laboratory ETS, New Mexico MPS 294352
2004 05 16.35265 16 16 43.16 -20 11 30.2 18.9 C 704 – Lincoln Laboratory ETS, New Mexico MPS 294352
2004 05 19.30725 16 14 25.29 -19 48 36.4 19.5   704 – Lincoln Laboratory ETS, New Mexico MPS 107481
2004 05 19.32517 16 14 24.34 -19 48 28.4 19.6   704 – Lincoln Laboratory ETS, New Mexico MPS 107481
2004 05 19.33435 16 14 23.96 -19 48 24.1 19.8   704 – Lincoln Laboratory ETS, New Mexico MPS 107481
2004 05 19.34342 16 14 23.52 -19 48 19.9 19.9   704 – Lincoln Laboratory ETS, New Mexico MPS 107481
2004 06 15.22839 15 54 35.66 -16 25 44.7 19.2 C 704 – Lincoln Laboratory ETS, New Mexico MPS 291441
2004 06 15.23855 15 54 35.28 -16 25 39.3 19.1 C 704 – Lincoln Laboratory ETS, New Mexico MPS 291441
2004 06 15.24872 15 54 34.99 -16 25 35.2 19.4 C 704 – Lincoln Laboratory ETS, New Mexico MPS 291441
2004 06 15.25898 15 54 34.47 -16 25 30.7 19.5 C 704 – Lincoln Laboratory ETS, New Mexico MPS 291441
2004 06 15.26926 15 54 34.13 -16 25 28.3 19.3 C 704 – Lincoln Laboratory ETS, New Mexico MPS 291441
2004 06 15.28150 15 54 33.72 -16 25 21.8 19.4 V 691 – Steward Observatory, Kitt Peak-Spacewatch MPS 109062
2004 06 15.30960 15 54 32.67 -16 25 10.5 19.6 V 691 – Steward Observatory, Kitt Peak-Spacewatch MPS 109062
2004 06 15.34318 15 54 31.45 -16 24 56.8 20.2 V 691 – Steward Observatory, Kitt Peak-Spacewatch MPS 109062
2004 06 18.22746 15 52 55.26 -16 06 13.0 19.0   704 – Lincoln Laboratory ETS, New Mexico MPS 109062
2004 06 18.23746 15 52 54.93 -16 06 09.4 19.1   704 – Lincoln Laboratory ETS, New Mexico MPS 109062
2004 06 18.24747 15 52 54.66 -16 06 06.0 19.5   704 – Lincoln Laboratory ETS, New Mexico MPS 109062
2004 06 18.25748 15 52 54.29 -16 06 01.9 19.4   704 – Lincoln Laboratory ETS, New Mexico MPS 109062
2005 09 11.23042 22 06 45.36 +12 42 18.5 19.0   704 – Lincoln Laboratory ETS, New Mexico MPS 202344
2005 09 11.24200 22 06 44.90 +12 42 13.1 19.2   704 – Lincoln Laboratory ETS, New Mexico MPS 202344
2005 09 11.25336 22 06 44.43 +12 42 08.8 19.1   704 – Lincoln Laboratory ETS, New Mexico MPS 202344
2006 10 04.40712 03 25 49.83 +24 46 14.5 20.1 V G96 – Mt. Lemmon Survey MPS 210131
2006 10 04.41598 03 25 49.69 +24 46 13.5 20.2 V G96 – Mt. Lemmon Survey MPS 210131
2006 10 04.42486 03 25 49.44 +24 46 11.4 20.5 V G96 – Mt. Lemmon Survey MPS 210131
2006 10 04.43369 03 25 49.22 +24 46 09.9 20.1 V G96 – Mt. Lemmon Survey MPS 210131
2006 10 19.34359 03 18 18.14 +23 48 41.9 20.2 V G96 – Mt. Lemmon Survey MPS 210131
2006 10 19.35039 03 18 17.85 +23 48 40.2 19.9 V G96 – Mt. Lemmon Survey MPS 210131
2006 10 19.35702 03 18 17.64 +23 48 38.6 19.9 V G96 – Mt. Lemmon Survey MPS 210131
2006 10 19.36381 03 18 17.35 +23 48 36.6 19.9 V G96 – Mt. Lemmon Survey MPS 210131
2006 10 19.39436 03 18 16.14 +23 48 27.8 20.6 V 691 – Steward Observatory, Kitt Peak-Spacewatch MPS 184071
2006 10 19.41180 03 18 15.43 +23 48 23.7 20.4 V 691 – Steward Observatory, Kitt Peak-Spacewatch MPS 184071
2006 10 19.43323 03 18 14.64 +23 48 16.9 20.6 V 691 – Steward Observatory, Kitt Peak-Spacewatch MPS 184071
2006 10 23.38635 03 15 38.53 +23 28 47.0 20.6 V 691 – Steward Observatory, Kitt Peak-Spacewatch MPS 184071
2006 10 23.40384 03 15 37.82 +23 28 41.9 20.5 V 691 – Steward Observatory, Kitt Peak-Spacewatch MPS 184071
2006 10 23.42133 03 15 37.06 +23 28 36.2 20.4 V 691 – Steward Observatory, Kitt Peak-Spacewatch MPS 184071
2006 10 27.39624 03 12 48.69 +23 07 21.1 20.4 V 691 – Steward Observatory, Kitt Peak-Spacewatch MPS 185460
2006 10 27.41369 03 12 47.88 +23 07 15.1 20.5 V 691 – Steward Observatory, Kitt Peak-Spacewatch MPS 185460
2006 10 27.43109 03 12 47.11 +23 07 09.3 20.3 V 691 – Steward Observatory, Kitt Peak-Spacewatch MPS 185460
2006 11 14.26421 02 59 03.12 +21 16 17.2 19.8 V G96 – Mt. Lemmon Survey MPS 186998
2006 11 14.26994 02 59 02.83 +21 16 14.6 20.0 V G96 – Mt. Lemmon Survey MPS 186998
2006 11 14.27566 02 59 02.58 +21 16 12.5 19.8 V G96 – Mt. Lemmon Survey MPS 186998
2006 11 14.28138 02 59 02.29 +21 16 10.4 19.2 V G96 – Mt. Lemmon Survey MPS 186998
2006 12 22.24706 02 38 16.22 +17 24 34.0 21.1 V G96 – Mt. Lemmon Survey MPS 192195
2006 12 22.25440 02 38 16.11 +17 24 31.7 20.4 V G96 – Mt. Lemmon Survey MPS 192195
2006 12 22.26161 02 38 16.00 +17 24 30.1 20.5 V G96 – Mt. Lemmon Survey MPS 192195
2006 12 22.26882 02 38 15.90 +17 24 27.8 20.2 V G96 – Mt. Lemmon Survey MPS 192195
2007 02 06.16544 02 48 41.54 +15 54 10.0 20.3 V G96 – Mt. Lemmon Survey MPS 198701
2007 02 06.17501 02 48 41.86 +15 54 09.9 21.3 V G96 – Mt. Lemmon Survey MPS 198701
2007 02 06.18448 02 48 42.30 +15 54 09.9 21.6 V G96 – Mt. Lemmon Survey MPS 198701
2007 02 06.19387 02 48 42.55 +15 54 08.8 20.2 V G96 – Mt. Lemmon Survey MPS 198701
2008 12 07.51733 11 38 55.11 -14 11 06.5   291 – LPL/Spacewatch II MPS 268797
2008 12 07.52118 11 38 55.28 -14 11 07.4   291 – LPL/Spacewatch II MPS 268797
2008 12 07.52499 11 38 55.51 -14 11 10.5   291 – LPL/Spacewatch II MPS 268797
2009 03 06.59915 11 48 22.86 -20 48 26.2 19.5 V E12 – Siding Spring Survey MPS 289790
2009 03 06.61875 11 48 22.03 -20 48 22.8 19.6 V E12 – Siding Spring Survey MPS 289790
2009 03 16.66560 11 41 14.31 -20 00 57.0 19.8 V E12 – Siding Spring Survey MPS 280061
2009 03 16.67352 11 41 13.92 -20 00 54.6 19.6 V E12 – Siding Spring Survey MPS 280061
2009 03 28.58091 11 32 44.84 -18 38 38.6 19.3 V E12 – Siding Spring Survey MPS 282531
2009 03 28.59101 11 32 44.37 -18 38 34.4 19.1 V E12 – Siding Spring Survey MPS 282531
2009 03 28.60112 11 32 43.98 -18 38 28.7 19.2 V E12 – Siding Spring Survey MPS 282531
2009 03 28.61133 11 32 43.54 -18 38 23.2 18.7 V E12 – Siding Spring Survey MPS 282531
2009 03 30.23883 11 31 38.36 -18 25 30.7 19.6   704 – Lincoln Laboratory ETS, New Mexico MPS 284197
2009 03 30.26239 11 31 37.42 -18 25 19.5 19.8   704 – Lincoln Laboratory ETS, New Mexico MPS 284197
2009 03 30.27411 11 31 36.93 -18 25 14.0 19.8   704 – Lincoln Laboratory ETS, New Mexico MPS 284197
2010 03 29.933550 18 41 06.16 -17 20 28.6   C51 – WISE MPS 322083
2010 03 30.065854 18 41 13.36 -17 19 38.2   C51 – WISE MPS 322083
2010 03 30.462894 18 41 34.87 -17 17 07.0   C51 – WISE MPS 322083
2010 03 30.528983 18 41 38.40 -17 16 41.7   C51 – WISE MPS 322083
2010 03 30.66129 18 41 45.59 -17 15 51.5   C51 – WISE MPS 322083
2010 03 30.793590 18 41 52.62 -17 15 00.2   C51 – WISE MPS 322083
2010 03 30.925895 18 41 59.70 -17 14 09.6   C51 – WISE MPS 322083
2010 09 02.231162 18 12 15.446 -07 32 37.12 19.58 z F51 – Pan-STARRS 1, Haleakala MPS 365221
2010 09 02.242078 18 12 15.633 -07 32 38.46 19.44 z F51 – Pan-STARRS 1, Haleakala MPS 365221
2011 08 30.94345 00 18 33.87 +22 07 13.3 19.7 R 461 – University of Szeged, Piszkesteto Stn. (Konkol MPS 390284
2011 08 30.95443 00 18 33.52 +22 07 13.8 19.5 R 461 – University of Szeged, Piszkesteto Stn. (Konkol MPS 390284
